Weather History for Paganella, Italy

Change the Weather History Date:

Tuesday, December 4, 2012

  Actual Average Record
Temperature  
Mean Temperature 20 °F -  
Max Temperature 22 °F 30 °F 41 °F (2013)
Min Temperature 17 °F 21 °F 12 °F (2010)
Degree Days  
Heating Degree Days 46    
Moisture  
Dew Point 14 °F    
Average Humidity 75    
Maximum Humidity 100    
Minimum Humidity 36    
Precipitation  
Precipitation 0.00 in 0.04 in - ()
Sea Level Pressure  
Sea Level Pressure 29.43 in    
Wind  
Wind Speed 19 mph ()    
Max Wind Speed 30 mph    
Max Gust Speed 43 mph    
Visibility 2.4 miles    
Events Fog    
Averages and records for this station are not official NWS values.
T = Trace of Precipitation, MM = Missing Value Source: Averaged Metar Reports

Daily Weather History Graph

Daily Weather History Graph

Search for Another Location

Airport:

Trip Planner

Search our weather history database for the weather conditions in past years. The results will help you decide how hot, cold, wet, or windy it might be!

Date:

Astronomy

Dec. 04, 2012 Rise Set
Actual Time 7:41 AM CET 4:30 PM CET
Civil Twilight 7:07 AM CET 5:04 PM CET
Nautical Twilight 6:29 AM CET 5:42 PM CET
Astronomical Twilight 5:53 AM CET 6:18 PM CET
Moon 10:13 PM CET (12/4) 11:16 AM CET (12/4)
Length of Visible Light 9h 57m
Length of Day
8h 49m
Waning Gibbous, 72% of the Moon is Illuminated
Dec 4
Waning Gibbous
Dec 6
Last Quarter
Dec 13
New
Dec 20
First Quarter
Dec 28
Full

Hourly Weather History & Observations

Time (CET) Temp. Windchill Dew Point Humidity Pressure Visibility Wind Dir Wind Speed Gust Speed Precip Events Conditions
12:55 AM 17.6 °F 2.7 °F 3.2 °F 53% 29.65 in - SSW 16.1 mph - N/A   Clear
1:00 AM 27 °F - 11 °F 36%  in 25 mi SSW 16.1 mph - -   Clear
1:55 AM 26.6 °F 14.3 °F 10.4 °F 51% 29.62 in - SSW 16.1 mph - N/A   Clear
2:55 AM 23.0 °F 8.0 °F 12.2 °F 63% 29.62 in - SSW 20.7 mph - N/A   Clear
3:55 AM 21.2 °F 4.9 °F 15.8 °F 80% 29.59 in - SSW 23.0 mph - N/A   Clear
4:00 AM 22 °F - 15 °F 65%  in 37 mi SSW 23.0 mph - -   Clear
4:55 AM 21.2 °F 4.9 °F 15.8 °F 80% 29.56 in - SSW 23.0 mph - N/A   Clear
5:55 AM 21.2 °F 4.2 °F 15.8 °F 80% 29.53 in - SSW 25.3 mph - N/A   Clear
6:55 AM 19.4 °F 1.4 °F 17.6 °F 93% 29.50 in - SSW 26.5 mph - N/A   Clear
7:00 AM 20 °F - 17 °F 81%  in 44 mi SSW 26.5 mph - -   Scattered Clouds
7:55 AM 17.6 °F -1.9 °F 17.6 °F 100% 29.47 in 0.0 mi SSW 29.9 mph 42.6 mph N/A Fog Light Freezing Fog
8:55 AM 19.4 °F 0.8 °F 19.4 °F 100% 29.47 in 0.0 mi SSW 28.8 mph 41.4 mph N/A Fog Light Freezing Fog
9:55 AM 21.2 °F 5.6 °F 21.2 °F 100% 29.44 in 0.0 mi SSW 20.7 mph - N/A Fog Light Freezing Fog
10:00 AM 21 °F - 20 °F 96%  in 0 mi SSW 20.7 mph - - Fog Heavy Fog
10:55 AM 21.2 °F 5.2 °F 21.2 °F 100% 29.44 in 0.0 mi SW 21.9 mph - N/A Fog Light Freezing Fog
11:55 AM 21.2 °F 6.0 °F 21.2 °F 100% 29.39 in 0.0 mi SSW 19.6 mph - N/A Fog Light Freezing Fog
12:55 PM 23.0 °F 9.2 °F 21.2 °F 93% 29.36 in 0.0 mi SSW 17.3 mph - N/A Fog Light Freezing Fog
1:00 PM 22 °F - 22 °F 97%  in 0 mi SSW 17.3 mph - - Fog Heavy Fog
1:55 PM 23.0 °F 11.1 °F 21.2 °F 93% 29.36 in 0.0 mi West 12.7 mph - N/A Fog Light Freezing Fog
2:55 PM 21.2 °F 6.4 °F 17.6 °F 86% 29.33 in 0.2 mi North 18.4 mph - N/A Fog Light Freezing Fog
3:55 PM 19.4 °F 2.1 °F 15.8 °F 86% 29.30 in 6.2 mi North 24.2 mph - N/A   Partly Cloudy
4:00 PM 19 °F - 16 °F 85%  in 19 mi North 24.2 mph - - Fog Light Fog
4:55 PM 19.4 °F 2.5 °F 12.2 °F 74% 29.33 in 6.2 mi North 23.0 mph - N/A   Partly Cloudy
5:55 PM 19.4 °F 3.2 °F 8.6 °F 63% 29.33 in - North 20.7 mph - N/A   Clear
6:55 PM 19.4 °F 3.6 °F 8.6 °F 63% 29.33 in - North 19.6 mph - N/A   Clear
7:00 PM 20 °F - 9 °F 48%  in 31 mi North 19.6 mph - -   Partly Cloudy
7:55 PM 19.4 °F 4.1 °F 5.0 °F 54% 29.33 in - North 18.4 mph - N/A   Clear
8:55 PM 19.4 °F 2.5 °F 8.6 °F 63% 29.33 in - North 23.0 mph - N/A   Clear
9:55 PM 17.6 °F 1.3 °F 6.8 °F 63% 29.33 in - North 19.6 mph - N/A   Clear
10:00 PM 18 °F - 8 °F 50%  in 31 mi North 19.6 mph - -  
10:55 PM 17.6 °F 0.9 °F 8.6 °F 68% 29.33 in - North 20.7 mph - N/A   Clear
11:55 PM 17.6 °F 0.9 °F -0.4 °F 45% 29.33 in - NNW 20.7 mph - N/A   Clear